Location: Biała Podlaska
(52.0233°N, 23.1168°E)
Time: 17:59:35
(UTC+01:00)

ISS - Visible Passes

Search period start: 16 January 2019 00:00
Search period end: 26 January 2019 00:00
Orbit: 404 x 407 km, 51.6° (Epoch: 17 January)

Date Brightness Start Highest point End Pass type
(mag) Time Alt. Az. Time Alt. Az. Time Alt. Az.
23 Jan -1.1 18:37:29 10° SSW 18:38:06 14° SSW 18:38:06 14° SSW visible
24 Jan -1.9 17:46:13 10° S 17:48:29 18° SE 17:48:29 18° SE visible
25 Jan -1.4 16:55:33 10° SSE 16:56:48 12° SE 16:58:03 10° ESE visible
25 Jan -2.2 18:29:32 10° SW 18:31:30 29° SSW 18:31:30 29° SSW visible
